Tracking 29892 objects as of 21-Nov-2024
HD Live streaming from Space Station
objects crossing your sky now

COSMOS 2429

Track COSMOS 2429 now!
10-day predictions
COSMOS 2429 is classified as:


NORAD ID: 32052
Int'l Code: 2007-038A
Perigee: 959.5 km
Apogee: 1,017.5 km
Inclination: 83.0 °
Period: 104.7 minutes
Semi major axis: 7359 km
RCS: 1.582 m2 (large)
Launch date: September 11, 2007
Source: Commonwealth of Independent States (former USSR) (CIS)
Launch site: PLESETSK MISSILE AND SPACE COMPLEX (PKMTR)

The spacecraft is called Kosmos 2429 under the Russian Defense Ministry's naming system for military satellites
Your satellite tracking list
Your tracking list is empty




NASA's NSSDC Master Catalog

Two Line Element Set (TLE):
1 32052U 07038A   24326.13719464  .00000104  00000-0  92163-4 0  9992
2 32052  82.9796 268.2120 0039374  37.4161 322.9725 13.75092467862981
Source of the keplerian elements: AFSPC